Location: Gollag?dem
(17.0207°N, 80.7261°E)
Time: 00:56:26
(UTC+00:00)

Cosmos 2237 Rocket - Pass Details

Date: 03 August 2024
Orbit: 836 x 848 km, 71.0° (Epoch: 12 September)

Event Time Altitude Azimuth Distance (km) Brightness Sun altitude
Exits shadow 21:11:46 21° 80° (E) 1,825 4.3 -39.9°
Drops below altitude 10° 21:14:35 10° 52° (NE) 2,455 5.3 -39.4°
Sets 21:17:29 0° 38° (NE) 3,388 6.2 -38.9°
